P/2022 P2 ( ZTF )

Japanese version
Home page
Updated on September 11, 2022

---------------------------------------------------------------------

* Profile

Discovery Date August 15, 2022
Magnitude 18.5 mag
Discoverer Zwicky Transient Facility

* Pictures

* Orbital Elements

Epoch 2022 Aug. 9.0 TT = JDT 2459800.5
T 2022 July 12.83724 TT                                 Rudenko
q   1.9954345            (2000.0)            P               Q
n   0.09377284     Peri.  138.45180     +0.33027412     -0.92243399
a   4.7982698      Node   291.38467     +0.79937805     +0.38607407
e   0.5841346      Incl.   12.40849     +0.50191009     -0.00789595
P  10.5
From 77 observations 2022 Aug. 15-Sept. 8, mean residual 0".6.

* Magnitudes Graph

        m1 = 12.0 + 5 log d + 10.0 log r

---------------------------------------------------------------------

The orbital elements are published on M.P.E.C. 2022-R139.
The magnitudes graphs are made with Comet for Windows.

---------------------------------------------------------------------

Copyright(C) Seiichi Yoshida (comet@aerith.net). All rights reserved.